Date String (YYYY-MM-DD hh:mm:ss) UTC,Instrument flags,Ambient pressure (hPa),Sample flow (lpm),Bypass flow (lpm),Sample temperature (°C),Ambient temperature (°C),ASC tube jacket temperature (°C),LED temperature (°C),Box temperature (°C),Sample RH (%),Span deviation,Mass concentration (μg/m³),Mass concentration (μg/m³),Mass concentration (μg/m³)
DateTimeUTC,F1_M11,P_M11,Q1_M11,Q2_M11,T1_M11,T2_M11,T3_M11,T4_M11,T5_M11,U1_M11,ZSPAN_M11,X0_M11,X2_M11,X1_M11
2023-05-24 18:00:00,,0830.7,5.00,0.00,29.4,28.0,00.0,37.7,31.1,32.3,0002.5,0038.58,0022.27,0021.05
2023-05-24 18:01:00,,0830.7,5.01,0.00,29.4,28.1,00.0,37.7,31.2,32.6,0002.4,0038.15,0022.28,0021.03
2023-05-24 18:02:00,,0830.7,5.01,0.00,29.5,28.1,00.0,37.7,31.2,32.5,0002.5,0038.27,0022.29,0021.04
2023-05-24 18:03:00,,0830.7,5.00,0.00,29.5,28.2,00.0,37.7,31.2,32.3,0002.4,0038.72,0022.31,0021.09
2023-05-24 18:04:00,,0830.6,5.00,0.00,29.5,28.2,00.0,37.8,31.3,31.9,0002.5,0038.84,0022.35,0021.14
2023-05-24 18:05:00,,0830.6,4.99,0.00,29.6,28.3,00.0,37.8,31.3,32.4,0002.5,0039.42,0022.39,0021.15
2023-05-24 18:06:00,,0830.6,4.99,0.00,29.6,28.3,00.0,37.8,31.3,32.4,0002.5,0039.47,0022.39,0021.16
2023-05-24 18:07:00,,0830.6,5.00,0.00,29.6,27.8,00.0,37.8,31.3,32.3,0002.5,0039.46,0022.34,0021.12
2023-05-24 18:08:00,,0830.5,5.00,0.00,29.6,26.4,00.0,37.7,31.1,32.6,0002.6,0038.21,0022.27,0021.06
2023-05-24 18:09:00,,0830.5,5.00,0.00,29.5,25.9,00.0,37.7,31.0,32.1,0002.6,0037.53,0022.27,0021.05
2023-05-24 18:10:00,,0830.7,5.00,0.00,29.5,26.0,00.0,37.7,30.9,32.0,0002.7,0037.33,0022.32,0021.11
2023-05-24 18:11:00,,0830.4,5.01,0.00,29.4,26.3,00.0,37.7,30.9,32.6,0002.9,0035.13,0022.27,0021.10
2023-05-24 18:12:00,,0830.6,5.01,0.00,29.4,26.6,00.0,37.7,31.0,32.4,0002.9,0034.96,0022.30,0021.13
2023-05-24 18:13:00,,0830.5,4.98,0.00,29.4,26.9,00.0,37.7,31.0,32.3,0002.8,0034.29,0022.31,0021.18
2023-05-24 18:14:00,,0830.5,4.99,0.00,29.4,27.1,00.0,37.7,31.0,32.1,0002.8,0033.81,0022.29,0021.16
2023-05-24 18:15:00,,0830.6,5.01,0.00,29.4,27.4,00.0,37.7,31.1,32.4,0002.8,0034.19,0022.25,0021.12
2023-05-24 18:16:00,,0830.6,5.01,0.00,29.4,27.6,00.0,37.7,31.1,32.2,0002.8,0034.26,0022.26,0021.13
2023-05-24 18:17:00,,0830.6,5.00,0.00,29.4,27.7,00.0,37.7,31.2,31.9,0002.7,0034.51,0022.29,0021.13
2023-05-24 18:18:00,,0830.6,4.98,0.00,29.5,27.9,00.0,37.7,31.2,31.8,0002.7,0034.37,0022.26,0021.12
2023-05-24 18:19:00,,0830.6,5.01,0.00,29.5,28.0,00.0,37.8,31.2,32.1,0002.7,0034.24,0022.20,0021.08
2023-05-24 18:20:00,,0830.7,5.01,0.00,29.5,28.0,00.0,37.8,31.2,31.7,0002.7,0034.35,0022.16,0021.04
2023-05-24 18:21:00,,0830.6,5.00,0.00,29.5,28.1,00.0,37.8,31.3,32.1,0002.6,0034.81,0022.14,0020.99
2023-05-24 18:22:00,,0830.6,4.99,0.00,29.6,28.2,00.0,37.8,31.3,32.3,0002.6,0035.00,0022.16,0020.94
2023-05-24 18:23:00,,0830.6,4.99,0.00,29.6,28.3,00.0,37.8,31.3,32.1,0002.6,0035.12,0022.12,0020.88
2023-05-24 18:24:00,,0830.6,4.99,0.00,29.6,27.8,00.0,37.8,31.3,32.0,0002.6,0035.09,0022.07,0020.81
2023-05-24 18:25:00,,0830.5,5.00,0.00,29.6,26.2,00.0,37.7,31.1,31.7,0002.6,0035.50,0022.06,0020.81
2023-05-24 18:26:00,,0830.6,5.00,0.00,29.5,25.2,00.0,37.7,30.9,31.7,0002.7,0034.80,0022.06,0020.82
2023-05-24 18:27:00,,0830.5,5.01,0.00,29.4,25.1,00.0,37.6,30.8,31.7,0002.6,0034.73,0022.05,0020.84
2023-05-24 18:28:00,,0830.6,5.01,0.00,29.3,25.4,00.0,37.6,30.7,32.2,0002.6,0034.97,0022.01,0020.83
2023-05-24 18:29:00,,0830.6,5.00,0.00,29.3,25.7,00.0,37.6,30.7,32.2,0002.6,0035.99,0022.09,0020.85
2023-05-24 18:30:00,,0830.5,5.00,0.00,29.3,26.1,00.0,37.6,30.8,32.6,0002.6,0036.11,0022.15,0020.92
2023-05-24 18:31:00,,0830.6,5.00,0.00,29.2,26.5,00.0,37.6,30.8,33.3,0002.5,0036.17,0022.19,0020.95
2023-05-24 18:32:00,,0830.5,5.00,0.00,29.3,26.8,00.0,37.6,30.8,33.2,0002.5,0035.94,0022.19,0020.93
2023-05-24 18:33:00,,0830.6,5.00,0.00,29.3,27.0,00.0,37.6,30.9,33.2,0002.5,0035.35,0022.18,0020.96
2023-05-24 18:34:00,,0830.6,5.00,0.00,29.3,27.3,00.0,37.6,30.9,32.5,0002.5,0035.12,0022.21,0021.02
2023-05-24 18:35:00,,0830.6,5.00,0.00,29.3,27.4,00.0,37.6,31.0,32.5,0002.6,0034.91,0022.25,0021.07
2023-05-24 18:36:00,,0830.6,5.01,0.00,29.3,27.6,00.0,37.6,31.0,32.3,0002.6,0034.66,0022.31,0021.12
2023-05-24 18:37:00,,0830.6,4.99,0.00,29.3,27.7,00.0,37.6,31.0,32.4,0002.6,0034.96,0022.40,0021.18
2023-05-24 18:38:00,,0830.6,4.99,0.00,29.4,27.8,00.0,37.6,31.1,32.8,0002.6,0036.01,0022.40,0021.17
2023-05-24 18:39:00,,0830.6,5.01,0.00,29.4,27.9,00.0,37.7,31.1,32.5,0002.6,0036.93,0022.42,0021.17
2023-05-24 18:40:00,,0830.6,5.00,0.00,29.4,28.0,00.0,37.7,31.2,32.1,0002.5,0036.28,0022.40,0021.20
2023-05-24 18:41:00,,0830.6,5.01,0.00,29.4,28.1,00.0,37.7,31.2,32.6,0002.5,0036.52,0022.34,0021.16
2023-05-24 18:42:00,,0830.6,5.00,0.00,29.5,28.2,00.0,37.7,31.2,32.3,0002.5,0036.78,0022.37,0021.21
2023-05-24 18:43:00,,0830.6,5.00,0.00,29.5,28.2,00.0,37.7,31.3,31.9,0002.6,0036.76,0022.40,0021.27
2023-05-24 18:44:00,,0830.6,4.99,0.00,29.5,28.3,00.0,37.8,31.3,31.9,0002.6,0037.32,0022.52,0021.36
2023-05-24 18:45:00,,0830.6,4.99,0.00,29.5,27.6,00.0,37.7,31.2,31.7,0002.6,0037.64,0022.57,0021.40
2023-05-24 18:46:00,,0830.5,5.00,0.00,29.5,25.9,00.0,37.7,30.9,31.8,0002.6,0038.35,0022.62,0021.41
2023-05-24 18:47:00,,0830.5,5.00,0.00,29.4,25.0,00.0,37.6,30.8,32.1,0002.6,0039.09,0022.68,0021.47
2023-05-24 18:48:00,,0830.5,5.00,0.00,29.3,25.1,00.0,37.5,30.7,32.7,0002.5,0038.79,0022.67,0021.47
2023-05-24 18:49:00,,0830.5,5.01,0.00,29.2,25.4,00.0,37.5,30.6,32.4,0002.5,0037.49,0022.65,0021.48
2023-05-24 18:50:00,,0830.5,5.00,0.00,29.2,25.8,00.0,37.5,30.7,32.4,0002.5,0036.41,0022.69,0021.51
2023-05-24 18:51:00,,0830.5,5.00,0.00,29.2,26.1,00.0,37.5,30.7,32.1,0002.6,0036.27,0022.76,0021.57
2023-05-24 18:52:00,,0830.5,5.00,0.00,29.2,26.5,00.0,37.5,30.8,32.3,0002.7,0036.19,0022.87,0021.68
2023-05-24 18:53:00,,0830.5,4.99,0.00,29.2,26.8,00.0,37.5,30.8,32.4,0002.8,0035.91,0022.90,0021.71
2023-05-24 18:54:00,,0830.7,5.00,0.00,29.2,27.0,00.0,37.5,30.9,32.3,0002.7,0035.79,0022.88,0021.69
2023-05-24 18:55:00,,0830.5,5.01,0.00,29.2,27.3,00.0,37.5,30.9,32.3,0002.7,0035.43,0022.85,0021.69
2023-05-24 18:56:00,,0830.4,5.00,0.00,29.2,27.4,00.0,37.6,30.9,32.0,0002.8,0035.55,0022.89,0021.71
2023-05-24 18:57:00,,0830.4,5.01,0.00,29.3,27.6,00.0,37.6,31.0,32.7,0002.8,0035.14,0022.91,0021.74
2023-05-24 18:58:00,,0830.5,5.00,0.00,29.3,27.7,00.0,37.6,31.0,32.9,0002.7,0034.22,0022.88,0021.71
2023-05-24 18:59:00,,0830.5,4.99,0.00,29.3,27.9,00.0,37.6,31.1,32.5,0002.7,0034.30,0022.90,0021.71
